Eastman, GA

6:51 PM EDT on May 26, 2018 (GMT -0400)
Heart Of Georgia Regional

Weather History for KEZM - April, 2014

Change the Weather History Date:

Friday, April 11, 2014

  Actual Average Record
Temperature  
Mean Temperature 64 °F -  
Max Temperature 81 °F 74 °F 85 °F (2013)
Min Temperature 48 °F 49 °F 41 °F (2018)
Growing Degree Days 14 (Base 50)    
Moisture  
Dew Point 53 °F    
Average Humidity 72    
Maximum Humidity 100    
Minimum Humidity 37    
Precipitation  
Precipitation 0.00 in - - ()
Sea Level Pressure  
Sea Level Pressure 30.25 in    
Wind  
Wind Speed 2 mph (SW)    
Max Wind Speed 10 mph    
Max Gust Speed 17 mph    
Visibility 9 miles    
Events      
Averages and records for this station are not official NWS values.
T = Trace of Precipitation, MM = Missing Value Source: NWS Daily Summary

Daily Weather History Graph

Daily Weather History Graph

Search for Another Location

Airport or City:

Astronomy

Apr. 11, 2014 Rise Set
Actual Time 7:08 AM EDT 7:59 PM EDT
Civil Twilight 6:43 AM EDT 8:24 PM EDT
Nautical Twilight 6:13 AM EDT 8:53 PM EDT
Astronomical Twilight 5:43 AM EDT 9:24 PM EDT
Moon 4:49 PM EDT (4/11) 4:50 AM EDT (4/11)
Length of Visible Light 13h 40m
Length of Day
12h 50m
Waxing Gibbous, 87% of the Moon is Illuminated
Apr 11
Waxing Gibbous
Apr 15
Full
Apr 22
Last Quarter
Apr 29
New
May 6
First Quarter

Hourly Weather History & Observations

Time (EDT) Temp. Heat Index Dew Point Humidity Pressure Visibility Wind Dir Wind Speed Gust Speed Precip Events Conditions
12:15 AM 55.2 °F - 53.8 °F 95% 30.27 in 10.0 mi Calm Calm - N/A   Clear
12:35 AM 57.2 °F - 51.8 °F 82% 30.27 in 10.0 mi Calm Calm - N/A   Clear
12:55 AM 58.5 °F - 50.9 °F 76% 30.27 in 10.0 mi Calm Calm - N/A   Clear
1:15 AM 55.2 °F - 50.7 °F 85% 30.27 in 10.0 mi Calm Calm - N/A   Clear
1:35 AM 55.6 °F - 51.8 °F 87% 30.27 in 10.0 mi Calm Calm - N/A   Clear
1:55 AM 53.1 °F - 51.8 °F 95% 30.26 in 10.0 mi Calm Calm - N/A   Clear
2:15 AM 52.9 °F - 52.3 °F 98% 30.26 in 10.0 mi Calm Calm - N/A   Clear
2:35 AM 51.8 °F - 51.8 °F 100% 30.25 in 10.0 mi Calm Calm - N/A   Clear
2:55 AM 51.6 °F - 51.6 °F 100% 30.25 in 10.0 mi Calm Calm - N/A   Clear
3:15 AM 51.4 °F - 51.4 °F 100% 30.25 in 7.0 mi Calm Calm - N/A   Clear
3:35 AM 50.9 °F - 50.9 °F 100% 30.25 in 0.8 mi Calm Calm - N/A   Mist
3:55 AM 50.0 °F - 50.0 °F 100% 30.25 in 0.8 mi Calm Calm - N/A   Mist
4:15 AM 50.2 °F - 50.2 °F 100% 30.25 in 7.0 mi Calm Calm - N/A   Clear
4:35 AM 49.6 °F - 49.6 °F 100% 30.26 in 5.0 mi South 3.5 mph - N/A   Clear
4:55 AM 50.4 °F - 50.4 °F 100% 30.26 in 10.0 mi South 3.5 mph - N/A   Clear
5:15 AM 50.4 °F - 50.2 °F 99% 30.26 in 10.0 mi Calm Calm - N/A   Clear
5:35 AM 50.9 °F - 50.9 °F 100% 30.27 in 10.0 mi Calm Calm - N/A   Clear
5:55 AM 49.5 °F - 49.5 °F 100% 30.27 in 7.0 mi Calm Calm - N/A   Clear
6:15 AM 49.5 °F - 49.5 °F 100% 30.28 in 7.0 mi Calm Calm - N/A   Clear
6:35 AM 49.3 °F - 49.3 °F 100% 30.28 in 2.0 mi Calm Calm - N/A   Clear
6:55 AM 49.1 °F - 49.1 °F 100% 30.29 in 2.5 mi Calm Calm - N/A   Clear
7:15 AM 49.3 °F - 49.3 °F 100% 30.29 in 4.0 mi Calm Calm - N/A   Clear
7:35 AM 48.4 °F - 48.4 °F 100% 30.30 in 3.0 mi Calm Calm - N/A   Clear
7:55 AM 49.6 °F - 49.6 °F 100% 30.30 in 7.0 mi Calm Calm - N/A   Clear
8:15 AM 52.5 °F - 52.5 °F 100% 30.31 in 10.0 mi Calm Calm - N/A   Clear
8:35 AM 55.8 °F - 55.8 °F 100% 30.31 in 10.0 mi Calm Calm - N/A   Clear
8:55 AM 59.2 °F - 56.5 °F 91% 30.32 in 10.0 mi Calm Calm - N/A   Clear
9:15 AM 63.1 °F - 56.1 °F 78% 30.32 in 10.0 mi Calm Calm - N/A   Clear
9:35 AM 66.2 °F - 55.4 °F 68% 30.32 in 10.0 mi Calm Calm - N/A   Clear
10:15 AM 69.1 °F - 52.5 °F 55% 30.33 in 10.0 mi West 5.8 mph - N/A   Clear
10:35 AM 70.3 °F - 53.1 °F 54% 30.33 in 10.0 mi WSW 4.6 mph - N/A   Clear
10:55 AM 71.6 °F - 52.7 °F 51% 30.33 in 10.0 mi West 4.6 mph - N/A   Clear
11:15 AM 72.9 °F - 51.8 °F 47% 30.33 in 10.0 mi South 3.5 mph - N/A   Clear
11:35 AM 74.1 °F - 52.5 °F 47% 30.32 in 10.0 mi SW 4.6 mph - N/A   Clear
11:55 AM 74.8 °F - 52.3 °F 45% 30.31 in 10.0 mi SW 9.2 mph - N/A   Clear
12:15 PM 75.7 °F - 52.9 °F 45% 30.31 in 10.0 mi SSW 8.1 mph - N/A   Clear
12:35 PM 75.9 °F - 53.6 °F 46% 30.30 in 10.0 mi SW 8.1 mph - N/A   Clear
12:55 PM 76.3 °F - 54.0 °F 46% 30.29 in 10.0 mi SSW 6.9 mph - N/A   Scattered Clouds
1:15 PM 77.7 °F - 54.0 °F 44% 30.28 in 10.0 mi SSW 10.4 mph - N/A   Scattered Clouds
1:35 PM 77.4 °F - 54.3 °F 45% 30.27 in 10.0 mi SW 3.5 mph - N/A   Scattered Clouds
1:55 PM 78.3 °F - 54.3 °F 43% 30.26 in 10.0 mi SW 6.9 mph 17.3 mph N/A   Scattered Clouds
2:15 PM 79.0 °F - 53.8 °F 42% 30.25 in 10.0 mi SW 9.2 mph 16.1 mph N/A   Scattered Clouds
2:35 PM 79.0 °F - 52.9 °F 40% 30.24 in 10.0 mi WSW 9.2 mph 17.3 mph N/A   Scattered Clouds
2:55 PM 79.3 °F - 53.2 °F 40% 30.23 in 10.0 mi WSW 10.4 mph - N/A   Scattered Clouds
3:15 PM 79.9 °F - 52.7 °F 39% 30.22 in 10.0 mi SW 8.1 mph 16.1 mph N/A   Clear
3:35 PM 80.8 °F 80.4 °F 53.8 °F 39% 30.21 in 10.0 mi SSW 6.9 mph - N/A   Scattered Clouds
3:55 PM 79.2 °F - 53.4 °F 41% 30.20 in 10.0 mi SSW 6.9 mph - N/A   Mostly Cloudy
4:15 PM 80.6 °F 80.3 °F 53.6 °F 39% 30.20 in 10.0 mi South 9.2 mph - N/A   Overcast
4:35 PM 79.9 °F - 54.1 °F 41% 30.20 in 10.0 mi South 10.4 mph - N/A   Overcast
4:55 PM 79.2 °F - 53.2 °F 41% 30.19 in 10.0 mi SW 8.1 mph - N/A   Overcast
5:15 PM 81.1 °F - 52.7 °F 37% 30.18 in 10.0 mi WSW 6.9 mph - N/A   Scattered Clouds
5:35 PM 78.8 °F - 53.1 °F 41% 30.18 in 10.0 mi South 8.1 mph - N/A   Scattered Clouds
5:55 PM 79.7 °F - 53.2 °F 40% 30.17 in 10.0 mi SSW 8.1 mph - N/A   Scattered Clouds
6:15 PM 77.7 °F - 53.1 °F 42% 30.17 in 10.0 mi SW 4.6 mph - N/A   Clear
6:35 PM 78.3 °F - 53.4 °F 42% 30.17 in 10.0 mi SSW 8.1 mph - N/A   Clear
6:55 PM 78.3 °F - 53.1 °F 41% 30.17 in 10.0 mi SW 4.6 mph - N/A   Clear
7:15 PM 77.7 °F - 53.8 °F 43% 30.18 in 10.0 mi SW 4.6 mph - N/A   Mostly Cloudy
7:35 PM 76.3 °F - 54.1 °F 46% 30.18 in 10.0 mi Calm Calm - N/A   Scattered Clouds
7:55 PM 74.5 °F - 54.9 °F 50% 30.18 in 10.0 mi Calm Calm - N/A   Clear
8:15 PM 72.5 °F - 56.3 °F 57% 30.18 in 10.0 mi Calm Calm - N/A   Clear
8:35 PM 69.6 °F - 57.0 °F 64% 30.18 in 10.0 mi Calm Calm - N/A   Clear
8:55 PM 66.2 °F - 57.2 °F 73% 30.18 in 10.0 mi Calm Calm - N/A   Clear
9:15 PM 64.8 °F - 57.4 °F 77% 30.19 in 10.0 mi Calm Calm - N/A   Clear
9:35 PM 63.9 °F - 57.9 °F 81% 30.20 in 10.0 mi Calm Calm - N/A   Clear
9:55 PM 61.7 °F - 58.8 °F 90% 30.20 in 10.0 mi Calm Calm - N/A   Scattered Clouds
10:15 PM 61.9 °F - 58.8 °F 90% 30.21 in 10.0 mi Calm Calm - N/A   Scattered Clouds
10:35 PM 60.8 °F - 58.5 °F 92% 30.21 in 10.0 mi Calm Calm - N/A   Clear
10:55 PM 59.4 °F - 59.0 °F 99% 30.21 in 10.0 mi Calm Calm - N/A   Clear
11:15 PM 58.3 °F - 58.1 °F 99% 30.22 in 10.0 mi Calm Calm - N/A   Clear
11:35 PM 58.5 °F - 57.9 °F 98% 30.22 in 10.0 mi Calm Calm - N/A   Scattered Clouds
11:55 PM 57.6 °F - 57.6 °F 100% 30.22 in 10.0 mi Calm Calm - N/A   Scattered Clouds